Meteo Giornale » Osservazioni meteo Italia » Torino-Caselle

ore: 09:50 - Osservazioni Meteo Torino-Caselle
Lat. 45° 13' N Lon. 7° 39' E Alt. 301 metri s.l.m.

sereno Europe/Rome

-1 °C

Sereno

Temp. 24 Ore

-3 °C

-0 °C

Nord

3.7 Km/h

Dew point -2 °C

Umidità 92 %

Visibilità  6 Km

Il sole sorge alle ore 07:56

Il sole tramonta alle ore 17:26

Data e Ora Cielo e Fenomeni T °C DP °C Um. % Pres. hPa Vis. km Vento km/h
Oggi h: 09:50 sereno Sereno -1 -2 92 999 6 N 3.7
Oggi h: 09:20 foschia Foschia -1 -1 100 999 4 N 1.8
Oggi h: 08:50 foschia Foschia Nebbia a Strati -2 -2 100 999 4 N 5.5
Oggi h: 08:20 foschia Foschia Nebbia a Strati -3 -3 100 999 4 N 7.4
Oggi h: 07:50 foschia Foschia Nebbia a Strati -3 -3 100 998 4 N 3.7
Oggi h: 07:20 poco_nuvoloso Poco Nuvoloso -3 -3 100 998 4 N 5.5
Oggi h: 06:50 foschia Foschia -2 -2 100 997 2 N 1.8
Oggi h: 06:20 foschia Foschia -1 -1 100 997 4 N 3.7
Oggi h: 05:50 foschia Foschia -1 -1 100 997 2 N 3.7
Oggi h: 05:20 foschia Foschia -1 -1 100 997 2 O 7.4
Oggi h: 04:50 foschia Foschia -1 -1 100 997 2 O/SO 9.3
Oggi h: 04:20 foschia Foschia -1 -1 100 997 2 N 5.5
Oggi h: 03:50 foschia Foschia -0 -0 100 997 2 O 7.4
Oggi h: 03:20 foschia Foschia -0 -0 100 998 2 O/SO 9.3
Oggi h: 02:50 foschia Foschia -0 -0 100 998 2 N 3.7
Oggi h: 02:20 coperto_neve Neve Debole -0 -0 100 997 2 N 3.7
Oggi h: 01:50 coperto_neve Neve Debole -0 -0 100 997 2 N 5.5
Oggi h: 01:20 coperto_neve Neve Debole -0 -0 100 997 1 N 5.5
Oggi h: 00:50 coperto_neve Neve Debole Nebbia Congelantesi -0 -0 100 997 0.7 N 1.8
Oggi h: 00:20 coperto_neve Neve Debole Nebbia Congelantesi -0 -0 100 997 0.8 N 1.8
Ieri h: 23:50 coperto_neve Neve Debole -0 -0 100 996 1 N 0
Ieri h: 23:20 coperto_neve Neve Debole -1 -1 100 996 2 N 3.7
Ieri h: 22:50 coperto_neve Neve Debole -0 -0 100 996 2 N 3.7
Ieri h: 22:20 coperto_neve Neve Debole -0 -0 100 996 2 N 5.5
Ieri h: 21:50 coperto_neve Neve Debole -0 -0 100 996 2 N 3.7
Ieri h: 21:20 coperto_neve Neve Debole -0 -0 100 995 2 N 3.7
Ieri h: 20:50 coperto_neve Neve Debole -0 -0 100 995 2 N 5.5
Ieri h: 20:20 coperto_neve Neve Debole -0 -0 100 995 2 N 7.4
Ieri h: 19:50 coperto_neve Neve Debole -0 -0 100 995 2 N 5.5
Ieri h: 19:20 coperto_neve Neve Debole -0 -0 100 995 2 N 7.4
Ieri h: 18:50 coperto_neve Neve Debole -0 -0 100 995 2 N 7.4
Ieri h: 18:20 coperto_neve Neve Debole -0 -0 100 995 2 N 7.4
Ieri h: 17:50 coperto_neve Neve Debole 0 0 100 995 2 N 7.4
Ieri h: 17:20 coperto_neve Neve Debole 0 -0 100 995 3 N 7.4
Ieri h: 16:50 foschia Foschia 0 -0 100 994 4 N/NE 7.4
Ieri h: 16:20 foschia Foschia 0 -0 100 995 4 N/NE 7.4
Ieri h: 15:50 coperto_neve Neve Debole 0 0 100 995 3 NE 7.4
Ieri h: 15:20 coperto_neve Neve Debole 0 0 100 995 2 N/NE 7.4
Ieri h: 14:50 coperto_neve Neve Debole 0 0 100 995 2 N 5.5
Ieri h: 14:20 coperto_neve Neve -0 -0 100 995 1 NE 7.4
Ieri h: 13:50 coperto_neve Neve -0 -0 100 995 0.8 N/NE 7.4
Ieri h: 13:20 coperto_neve Neve -1 -1 100 996 0.6 NE 9.3
Ieri h: 12:50 coperto_neve Neve Debole Foschia -1 -1 100 996 1 E/NE 9.3
Ieri h: 12:20 coperto_neve Neve Debole Foschia -1 -1 100 996 4 E/NE 9.3
Ieri h: 11:50 foschia Foschia -1 -1 100 996 4 E/NE 13
Ieri h: 11:20 molto_nuvoloso Molto Nuvoloso -0 -2 86 996 6 E 13
Ieri h: 10:50 molto_nuvoloso Molto Nuvoloso 0 -2 86 996 7 E/NE 9.3
Ieri h: 10:20 foschia Foschia -0 -1 92 996 5 N 1.8
Ieri h: 09:50 foschia Foschia -1 -2 92 996 5 N 1.8